Dewpoint
49 48 51 47 46 51 48 45 44 45 46 46 46 46 46 46 48 45 44 47 47 48 51 47 47 46 47 50 51 50 41 38 38 37 35 38 38 40 40 44 51 55 59 58 63
48 49 50 49 46 47 51 47 47 45 47 47 45 45 46 46 45 41 46 50 47 49 48 45 44 45 46 48 49 45 41 39 41 42 36 38 37 37 41 45 55 58 62 65 64
48 49 50 50 45 45 48 49 48 46 46 49 45 46 46 46 41 39 45 49 49 48 48 48 45 45 44 46 45 44 41 44 46 48 45 39 39 40 40 41 43 57 60 63 64
48 48 49 50 48 46 46 51 47 48 46 48 46 46 45 44 30 39 45 44 47 48 46 44 43 42 41 40 44 42 44 45 47 49 48 42 41 42 41 41 42 58 62 63 63
48 48 49 49 49 45 45 47 48 48 46 48 46 45 44 39 33 39 45 43 45 45 45 43 42 43 39 39 42 41 44 46 46 48 47 47 43 42 41 41 44 59 60 61 62
49 47 49 49 49 45 45 46 48 48 47 48 46 46 43 34 30 36 36 45 44 45 43 45 43 44 40 38 39 43 42 44 46 46 48 45 46 42 41 41 42 56 58 60 62
49 48 48 49 47 45 44 46 47 47 48 48 46 44 41 37 35 37 37 38 48 46 42 44 45 44 42 36 38 41 39 40 43 45 44 46 43 42 40 41 40 49 56 58 60
49 48 48 48 46 45 45 47 46 48 49 48 45 44 38 36 38 36 37 39 46 45 45 49 48 45 43 42 38 37 38 36 39 45 46 44 39 43 42 40 39 41 44 46 49
49 48 48 47 45 44 45 48 46 48 47 47 44 42 35 37 36 38 38 36 41 45 46 46 47 42 40 38 32 36 33 36 39 44 45 43 38 40 45 40 39 40 40 42 43
49 48 48 48 44 46 47 47 47 47 45 44 42 37 37 35 38 38 39 35 38 42 40 40 41 37 37 35 28 31 31 34 35 40 41 40 38 39 43 42 39 40 40 39 42
49 48 48 45 45 47 46 44 40 38 38 34 34 32 37 40 40 37 38 36 38 36 34 38 33 31 34 36 36 34 32 31 34 41 37 36 34 35 38 41 38 38 38 39 39
49 48 47 45 46 47 45 42 37 39 34 37 38 38 40 40 34 36 37 34 32 32 35 33 31 37 36 36 37 35 29 28 31 39 36 34 31 37 38 40 39 39 39 39 39
48 48 46 45 47 44 43 41 40 40 34 37 38 37 39 40 36 35 38 32 32 30 32 29 34 37 37 36 35 35 29 27 30 38 40 38 35 37 37 39 40 41 41 40 39
48 48 47 46 43 43 41 40 40 40 30 33 35 37 41 39 33 37 40 37 33 30 31 31 34 35 36 34 34 33 33 31 33 33 29 35 27 31 34 37 39 39 40 41 40
48 48 46 46 45 40 40 40 39 39 20 33 35 40 40 37 34 35 42 37 29 32 31 26 36 35 34 32 35 34 35 31 32 32 30 33 26 25 28 33 37 37 37 37 37
48 47 46 45 45 42 41 40 39 29 19 32 36 37 34 36 37 38 39 39 37 33 35 36 38 36 36 36 36 37 34 35 34 32 26 29 28 23 24 29 32 35 37 37 36
47 47 46 46 42 42 43 40 28 24 32 29 32 33 34 34 36 35 34 33 32 28 29 36 36 39 40 36 37 36 31 27 25 24 20 25 27 22 24 26 29 32 35 34 35
47 48 46 44 44 44 41 35 24 26 29 32 33 32 29 31 35 35 34 30 34 34 31 28 26 36 39 36 33 34 32 21 17 20 19 22 21 20 24 25 27 29 28 29 29
49 46 44 45 45 45 40 26 26 29 31 32 33 30 29 33 32 36 35 29 34 36 29 28 29 38 38 37 34 32 30 26 24 20 20 21 22 21 25 25 26 26 26 27 29
45 44 43 46 45 43 33 28 30 33 34 32 31 32 28 31 32 34 34 34 34 34 32 30 28 34 36 36 34 32 31 23 23 14 14 21 19 16 21 20 26 27 28 29 29
42 40 45 46 45 38 28 29 33 32 34 32 33 31 26 28 31 31 32 33 34 33 31 31 28 31 35 32 30 31 30 28 26 24 20 14 14 20 21 26 28 29 30 31 32
40 36 46 45 35 34 29 34 34 33 34 33 32 31 27 27 29 30 31 31 34 31 30 35 31 28 31 35 36 35 31 30 23 21 23 21 18 23 26 28 29 29 30 31 34
39 38 42 45 30 30 33 33 33 33 33 33 31 30 32 29 29 31 32 35 33 31 30 31 29 26 28 30 33 32 32 32 30 27 23 19 15 23 25 27 29 29 29 32 35
37 33 38 40 38 35 33 32 32 33 31 30 29 29 29 31 31 31 32 34 36 34 33 32 30 26 20 23 30 29 29 31 30 25 24 25 22 21 22 23 24 26 30 31 33
37 33 34 31 32 33 34 31 31 30 31 29 29 29 28 27 29 31 32 34 35 34 32 33 28 25 26 29 31 30 28 29 29 29 25 25 25 26 28 29 28 30 30 30 30
33 34 34 33 33 32 33 31 30 31 30 28 28 29 29 30 30 29 31 32 32 34 31 33 29 28 25 27 28 27 28 29 29 28 29 29 28 30 30 29 28 31 32 32 33
34 32 31 31 32 32 31 30 31 32 33 35 32 30 32 34 35 33 32 30 32 32 31 31 28 26 25 25 24 22 25 27 29 29 28 28 28 30 29 28 30 32 33 32 32
Wind_Speed
15 15 11 12 14 11 11 9 13 12 13 13 14 15 16 18 18 12 12 13 12 25 13 11 4 10 9 4 5 3 11 18 9 10 6 8 4 2 3 8 5 4 3 13 16
14 15 14 11 13 15 12 9 11 13 14 13 14 14 15 17 14 10 10 16 18 5 7 8 9 13 7 7 6 11 14 13 5 2 12 8 5 5 6 13 7 10 7 8 18
14 15 15 12 14 14 15 12 10 13 16 11 13 14 14 14 7 3 9 10 10 8 6 6 8 14 12 4 8 10 16 3 5 5 9 10 5 3 11 8 6 14 12 11 7
14 15 15 14 12 14 15 14 11 11 14 11 12 13 15 6 6 4 1 9 11 7 9 5 3 8 10 13 10 8 13 6 6 9 8 5 5 5 7 8 9 16 15 12 15
14 14 14 14 14 13 14 15 11 13 11 12 12 12 7 3 5 7 6 9 12 4 7 8 7 9 14 15 10 17 10 9 4 7 12 7 5 6 12 11 11 14 9 12 15
14 14 15 14 10 13 15 14 11 13 10 12 11 9 2 8 5 3 5 5 16 14 8 12 9 9 13 6 17 13 11 11 10 4 5 5 1 1 8 8 13 15 12 11 11
14 14 15 14 12 13 15 14 11 13 11 12 9 5 7 11 8 13 9 10 19 17 12 17 8 5 3 7 6 13 14 6 9 12 6 10 9 3 8 10 10 14 13 12 10
13 13 14 14 13 13 14 14 12 13 13 11 8 4 5 4 8 11 12 7 6 11 6 8 10 3 2 10 6 13 4 12 13 9 5 4 13 21 11 12 10 13 12 13 12
11 12 14 13 14 12 13 13 12 14 11 8 4 4 5 2 7 12 10 8 9 11 10 12 4 4 1 2 10 13 10 13 7 9 6 17 7 16 8 12 12 8 7 8 9
10 11 11 13 13 13 13 13 10 11 7 8 8 6 3 3 7 9 9 7 3 6 7 6 7 3 1 3 15 15 14 16 13 14 10 9 9 6 5 10 16 12 9 6 9
9 9 9 13 12 11 6 4 2 1 4 2 4 6 4 8 5 4 4 7 0 4 4 5 3 16 9 3 6 5 9 13 15 18 14 15 12 12 5 14 19 14 13 13 7
8 7 8 12 8 4 2 2 1 1 1 3 3 3 2 2 3 3 5 1 4 5 4 5 2 3 6 7 6 4 8 5 9 22 12 21 17 14 17 12 16 20 18 17 15
6 5 6 10 3 1 4 5 3 5 2 2 2 1 1 1 3 4 8 2 5 3 4 4 3 4 6 4 1 3 6 7 14 14 2 9 3 8 13 19 20 20 18 17 22
5 5 3 5 2 4 3 5 3 3 1 2 1 2 2 2 1 3 5 4 4 4 5 1 5 7 13 6 5 3 10 5 11 10 8 5 2 21 24 26 21 22 19 21 20
6 4 3 8 4 1 3 3 2 2 2 5 4 7 3 1 5 1 5 3 2 2 3 4 2 7 7 8 10 6 13 14 15 10 8 10 4 9 12 20 27 27 22 20 19
8 5 4 4 3 2 3 2 3 1 2 3 4 3 3 4 3 3 1 3 3 2 5 1 4 2 1 6 11 10 4 12 8 3 2 9 9 5 6 25 18 17 22 21 19
10 8 9 5 3 7 4 2 3 2 4 3 4 4 8 4 4 1 4 4 3 6 3 9 3 3 1 4 4 3 9 5 3 3 5 9 8 8 5 7 15 21 16 10 20
10 13 6 3 8 7 3 2 4 3 6 4 4 7 4 5 4 3 1 1 3 3 5 3 2 2 2 2 5 12 4 6 5 7 5 2 9 6 3 6 11 13 13 7 6
15 7 3 6 7 5 3 4 3 5 6 7 7 5 4 4 3 7 7 4 3 17 1 5 2 3 5 4 3 7 5 1 3 2 5 5 4 6 10 11 6 6 6 5 5
12 9 6 10 6 4 3 5 2 5 4 10 4 6 6 8 5 6 5 3 3 2 1 3 7 3 2 4 2 3 3 2 3 3 5 6 3 5 11 12 14 13 10 8 6
9 9 5 10 4 3 5 6 2 4 1 3 7 4 3 5 5 4 7 2 2 2 3 4 5 1 1 0 2 3 2 1 2 3 4 5 3 7 18 19 17 12 8 6 5
10 6 6 6 6 3 6 6 3 8 2 1 1 2 4 7 5 3 5 4 5 4 3 2 6 6 4 1 3 2 2 3 3 3 2 3 1 1 18 18 16 9 5 5 4
13 5 1 2 7 8 7 4 3 9 6 5 3 1 2 3 3 8 5 4 2 3 3 3 4 6 3 2 1 3 6 5 1 1 3 5 2 3 12 12 11 11 4 5 6
8 8 4 5 3 2 6 8 6 2 5 2 2 2 1 4 4 6 3 1 3 4 3 4 4 3 7 3 5 6 13 12 6 5 6 7 3 5 4 4 4 3 4 2 5
6 7 9 11 12 16 4 12 10 6 2 5 2 3 2 4 5 5 4 3 3 3 3 3 2 1 2 3 2 3 8 16 15 15 14 13 18 12 3 2 3 4 5 6 8
10 7 6 7 7 22 9 9 13 7 7 6 3 6 3 5 3 4 5 4 4 2 2 2 2 1 2 4 1 5 7 9 14 10 16 12 16 11 11 5 5 4 5 6 8
3 3 6 6 8 14 8 9 9 14 3 5 4 8 10 5 3 3 2 3 3 8 7 5 5 3 2 2 1 8 16 18 8 8 14 17 16 6 7 3 3 6 7 8 11
Wind_Direction
334 331 335 340 326 325 320 327 319 322 323 331 326 329 329 330 325 306 258 247 238 256 301 291 239 217 237 244 202 232 216 215 210 230 183 144 126 55 35 105 68 49 122 152 136
334 332 332 328 336 320 320 311 312 312 314 322 328 328 328 330 316 274 338 316 256 258 268 259 239 206 220 199 205 194 207 204 221 273 164 138 115 106 112 104 81 82 78 115 144
329 329 333 331 331 325 322 312 306 310 312 319 325 329 325 331 313 271 309 327 303 259 293 282 283 227 211 199 211 200 198 206 85 18 305 133 117 73 130 86 115 143 157 164 147
320 326 327 326 327 326 318 325 313 308 311 323 322 327 324 318 315 225 280 327 311 306 288 205 271 206 201 212 179 193 190 158 70 13 350 102 103 65 136 128 131 153 162 173 175
313 320 325 328 322 327 317 315 315 309 309 319 320 324 347 293 259 214 202 358 323 318 241 217 255 216 195 203 200 217 170 178 253 9 350 330 92 112 116 136 119 133 153 180 168
308 317 320 320 321 328 316 306 312 312 307 311 319 330 273 305 297 291 283 100 291 265 246 256 236 247 200 214 204 187 183 168 195 162 321 302 5 190 176 148 115 139 156 180 171
304 314 317 321 323 325 314 301 311 304 305 303 314 322 280 275 311 304 302 271 244 187 206 217 249 244 350 202 207 196 189 148 239 235 207 1 284 272 175 157 146 145 158 174 178
300 311 316 319 324 322 306 301 304 294 301 290 305 312 267 282 304 325 337 22 50 96 142 39 342 248 293 304 205 167 139 201 215 204 216 159 185 261 284 166 180 152 158 156 161
295 307 314 316 323 318 303 303 292 292 278 270 302 203 295 234 3 334 322 347 69 91 92 41 14 213 98 275 147 140 174 191 165 202 111 184 207 245 336 193 196 195 162 165 157
291 304 315 317 321 310 303 297 285 297 278 249 251 280 278 344 329 301 290 316 45 115 68 56 351 142 76 150 175 176 190 183 160 190 204 169 224 238 304 279 200 202 219 164 180
282 301 314 314 316 308 332 342 13 325 252 258 318 299 24 320 278 269 334 324 66 19 76 42 92 185 163 71 10 308 171 168 168 171 170 200 215 230 224 278 215 206 215 240 211
271 295 311 310 316 319 350 250 101 264 201 138 296 116 24 319 263 42 328 344 53 82 130 105 13 358 130 56 2 344 165 200 140 164 176 197 216 217 225 244 221 226 229 224 244
254 281 311 304 342 281 219 293 11 351 248 160 252 105 204 334 5 16 348 359 71 46 61 77 54 154 116 115 191 302 182 172 154 153 127 165 266 239 230 235 231 234 236 233 225
227 261 290 289 309 213 230 154 355 6 53 215 205 191 175 140 69 22 5 358 38 111 97 87 317 175 145 191 158 256 231 222 149 146 179 174 87 234 227 225 228 237 231 231 228
203 223 244 209 325 269 135 120 319 42 279 177 135 150 166 197 142 79 21 345 174 222 238 71 210 148 160 198 139 240 319 204 170 185 127 187 159 269 221 217 220 225 221 224 231
190 193 189 186 218 184 107 28 32 120 237 198 155 208 214 211 123 111 91 11 68 63 50 314 126 176 227 145 178 285 174 63 48 103 186 190 197 253 204 208 216 218 223 221 231
184 185 167 238 196 139 102 94 126 215 149 195 195 192 225 183 107 170 164 176 175 121 166 129 103 264 211 105 213 168 90 116 129 115 197 192 186 255 173 184 213 220 220 237 242
178 166 213 308 109 104 104 168 216 126 197 202 149 211 204 176 94 128 108 145 248 224 112 95 76 327 11 173 169 169 201 137 138 174 160 151 205 231 139 174 124 141 152 140 85
153 160 168 144 124 104 129 197 242 198 181 167 149 212 166 170 137 167 205 203 199 207 109 129 15 330 280 333 28 142 257 270 93 99 119 213 246 304 146 132 125 122 92 52 45
150 144 150 145 122 110 182 255 215 165 196 156 173 220 165 174 165 158 193 231 169 76 27 128 103 235 343 350 22 118 169 179 31 170 167 215 224 208 167 129 116 101 91 66 40
138 132 154 128 112 126 215 236 253 200 229 189 197 230 156 163 200 171 176 230 226 207 352 121 105 173 47 196 164 26 113 67 123 161 159 167 269 247 152 137 121 115 121 119 87
148 139 159 155 150 186 217 205 239 165 175 169 258 205 178 187 192 170 180 238 199 151 84 121 115 144 172 257 91 103 189 256 169 212 122 122 84 25 135 131 131 157 164 189 142
130 116 50 194 179 202 250 226 207 157 187 188 223 215 245 195 121 124 117 335 74 111 142 134 111 116 128 359 0 205 217 235 63 69 208 146 194 145 126 145 172 188 130 121 157
130 135 152 205 226 212 219 178 177 147 162 180 61 131 194 160 211 136 113 84 49 33 54 76 136 155 178 191 149 189 216 217 190 218 238 211 151 159 102 24 328 275 119 113 213
161 173 170 176 217 217 279 177 164 164 216 182 210 230 206 161 134 115 113 93 36 31 42 67 148 97 40 72 94 217 217 217 208 215 205 237 230 244 83 316 204 105 38 17 347
152 149 161 181 198 188 219 186 165 134 155 180 167 199 73 91 90 131 134 149 177 158 120 37 116 96 265 213 206 279 261 240 245 240 237 237 255 276 320 85 58 27 3 339 326
173 97 149 160 150 159 196 184 181 139 68 70 107 102 116 123 79 74 16 58 108 161 167 152 147 144 243 36 4 272 243 231 228 209 221 234 248 282 281 353 357 339 333 330 326